Location: Mahannah Oil Field
(37.4664°N, 96.6003°W)
Time: 01:12:04
(UTC+00:00)

Tiros 1 despin weight - Pass Details

Date: 27 January 2021
Orbit: 593 x 642 km, 48.2° (Epoch: 25 February)

Event Time Altitude Azimuth Distance (km) Brightness Sun altitude
Rises 17:24:59 0° 190° (S) 2,912 ? 31.6°
Reaches altitude 10° 17:28:06 10° 168° (SSE) 2,001 ? 31.8°
Maximum altitude 17:30:52 16° 131° (SE) 1,642 ? 32.0°
Drops below altitude 10° 17:33:38 10° 94° (E) 1,990 ? 32.2°
Sets 17:36:42 0° 72° (ENE) 2,889 ? 32.4°
